RSP-03 (65732 NORAD) Tracking and Keplerian Element Data

This shows tracking and keplerian element data for the satellite.

Feedback or suggestion? Click here.




ElementValue
Catalog65732
NameRSP-03
Epoch Orbit1421
Epoch Day353.42469933
Epoch Year2025
RAAN102.4221
Inclination51.6265
Eccentricity0.0005658
Argument of Perigee294.5755
Mean Anonmoly65.4652
Mean Motion15.70283101
Decay Rate0.00106087
L11 65732U 98067XL 25353.42469933 .00106087 00000+0 84699-3 0 9991
L22 65732 51.6265 102.4221 0005658 294.5755 65.4652 15.70283101 14217



Live tracking and technical data element details for RSP-03 (NORAD 65732). RSP-03 can be tracked NOW for your location showing map with azimuth and elevation plus other details from your city location.







IsCatalogInMostPopularTable: catalog: 65732, numindb: 29
Update: records affected: 1



GetName: 65732 RSP-03

Hit Count: updated at: Wed, 15 Apr 2026 01:36:35 GMT